Time,TemperatureF,DewpointF,PressureIn,WindDirection,WindDirectionDegrees,WindSpeedMPH,WindSpeedGustMPH,Humidity,HourlyPrecipIn,Conditions,Clouds,dailyrainin,SoftwareType,DateUTC
2013-05-12 00:02:00,37.8,36.0,29.92,WSW,256,4.0,7.0,93,0.00,,,0.10,meteohub,2013-05-12 04:02:00,
2013-05-12 00:03:00,37.8,36.0,29.92,WSW,240,4.0,7.0,93,0.00,,,0.10,meteohub,2013-05-12 04:03:00,
2013-05-12 00:04:00,37.8,36.0,29.92,West,273,4.0,7.0,93,0.00,,,0.10,meteohub,2013-05-12 04:04:00,
2013-05-12 00:09:00,37.8,36.0,29.93,West,259,4.0,7.0,93,0.00,,,0.10,meteohub,2013-05-12 04:09:00,
2013-05-12 00:14:00,37.8,36.0,29.93,WSW,253,4.0,7.0,93,0.00,,,0.00,meteohub,2013-05-12 04:14:00,
2013-05-12 00:19:00,37.8,36.0,29.93,WNW,293,5.0,9.0,93,0.00,,,0.00,meteohub,2013-05-12 04:19:00,
2013-05-12 00:24:00,37.8,36.0,29.93,West,270,5.0,9.0,93,0.00,,,0.00,meteohub,2013-05-12 04:24:00,
2013-05-12 00:30:00,37.9,36.1,29.93,WNW,287,4.0,9.0,93,0.00,,,0.00,meteohub,2013-05-12 04:30:00,
2013-05-12 00:35:00,37.9,36.1,29.93,West,266,5.0,9.0,93,0.00,,,0.00,meteohub,2013-05-12 04:35:00,
2013-05-12 00:40:00,38.1,36.3,29.94,West,276,8.0,9.0,93,0.00,,,0.00,meteohub,2013-05-12 04:40:00,
2013-05-12 00:45:00,38.5,36.3,29.93,West,281,5.0,10.0,92,0.00,,,0.00,meteohub,2013-05-12 04:45:00,
2013-05-12 00:50:00,38.7,36.3,29.93,West,277,7.0,10.0,91,0.00,,,0.00,meteohub,2013-05-12 04:50:00,
2013-05-12 00:55:00,38.8,36.5,29.94,WNW,286,5.0,10.0,91,0.00,,,0.00,meteohub,2013-05-12 04:55:00,
2013-05-12 01:00:00,39.0,36.7,29.94,West,275,5.0,10.0,91,0.00,,,0.00,meteohub,2013-05-12 05:00:00,
2013-05-12 01:05:00,39.2,36.5,29.94,West,273,6.0,10.0,90,0.00,,,0.00,meteohub,2013-05-12 05:05:00,
2013-05-12 01:10:00,39.6,36.9,29.94,West,270,6.0,10.0,90,0.00,,,0.00,meteohub,2013-05-12 05:10:00,
2013-05-12 01:15:00,39.7,36.7,29.94,West,259,8.0,10.0,89,0.00,,,0.00,meteohub,2013-05-12 05:15:00,
2013-05-12 01:20:00,39.7,36.5,29.94,West,278,5.0,10.0,88,0.00,,,0.00,meteohub,2013-05-12 05:20:00,
2013-05-12 01:25:00,39.9,36.3,29.94,West,274,6.0,10.0,87,0.00,,,0.00,meteohub,2013-05-12 05:25:00,
2013-05-12 01:30:00,40.1,36.3,29.94,West,278,7.0,11.0,86,0.00,,,0.00,meteohub,2013-05-12 05:30:00,
2013-05-12 01:35:00,40.3,36.1,29.94,WNW,293,7.0,12.0,85,0.00,,,0.00,meteohub,2013-05-12 05:35:00,
2013-05-12 01:40:00,40.5,36.0,29.94,West,275,6.0,12.0,84,0.00,,,0.00,meteohub,2013-05-12 05:40:00,
2013-05-12 01:45:00,40.6,36.0,29.93,West,276,7.0,12.0,83,0.00,,,0.00,meteohub,2013-05-12 05:45:00,
2013-05-12 01:50:00,40.6,35.2,29.94,WNW,287,8.0,12.0,81,0.00,,,0.00,meteohub,2013-05-12 05:50:00,
2013-05-12 01:55:00,40.6,34.9,29.93,WNW,290,6.0,12.0,80,0.00,,,0.00,meteohub,2013-05-12 05:55:00,
2013-05-12 02:00:00,40.8,34.9,29.93,WNW,295,10.0,12.0,79,0.00,,,0.00,meteohub,2013-05-12 06:00:00,
2013-05-12 02:05:00,40.8,34.5,29.93,WNW,293,10.0,12.0,78,0.00,,,0.00,meteohub,2013-05-12 06:05:00,
2013-05-12 02:10:00,40.8,34.2,29.93,WNW,298,8.0,14.0,77,0.00,,,0.00,meteohub,2013-05-12 06:10:00,
2013-05-12 02:15:00,40.8,33.8,29.93,WNW,301,9.0,16.0,76,0.00,,,0.00,meteohub,2013-05-12 06:15:00,
2013-05-12 02:21:00,40.8,33.8,29.93,WNW,289,12.0,16.0,76,0.00,,,0.00,meteohub,2013-05-12 06:21:00,
2013-05-12 02:26:00,40.8,34.2,29.93,NW,309,9.0,22.0,77,0.00,,,0.00,meteohub,2013-05-12 06:26:00,
2013-05-12 02:31:00,40.6,34.0,29.93,WNW,298,12.0,22.0,77,0.00,,,0.00,meteohub,2013-05-12 06:31:00,
2013-05-12 02:36:00,40.5,34.2,29.93,WNW,300,11.0,20.0,78,0.00,,,0.00,meteohub,2013-05-12 06:36:00,
2013-05-12 02:41:00,40.5,34.5,29.93,WNW,284,9.0,20.0,79,0.00,,,0.00,meteohub,2013-05-12 06:41:00,
2013-05-12 02:46:00,40.1,34.2,29.93,West,266,7.0,23.0,79,0.00,,,0.00,meteohub,2013-05-12 06:46:00,
2013-05-12 02:51:00,39.9,34.3,29.93,WNW,286,9.0,23.0,80,0.00,,,0.00,meteohub,2013-05-12 06:51:00,
2013-05-12 02:56:00,39.7,34.2,29.93,WNW,292,11.0,21.0,80,0.00,,,0.00,meteohub,2013-05-12 06:56:00,
2013-05-12 03:01:00,39.6,34.0,29.93,WNW,297,16.0,21.0,80,0.00,,,0.00,meteohub,2013-05-12 07:01:00,
2013-05-12 03:06:00,39.6,34.0,29.92,WNW,293,9.0,21.0,80,0.00,,,0.00,meteohub,2013-05-12 07:06:00,
2013-05-12 03:11:00,39.4,33.8,29.93,WNW,295,14.0,19.0,80,0.00,,,0.00,meteohub,2013-05-12 07:11:00,
2013-05-12 03:16:00,39.2,33.6,29.93,West,281,17.0,19.0,80,0.00,,,0.00,meteohub,2013-05-12 07:16:00,
2013-05-12 03:21:00,39.0,33.6,29.93,West,277,5.0,19.0,81,0.00,,,0.00,meteohub,2013-05-12 07:21:00,
2013-05-12 03:26:00,39.0,33.6,29.93,WNW,301,6.0,21.0,81,0.00,,,0.00,meteohub,2013-05-12 07:26:00,
2013-05-12 03:31:00,38.8,33.4,29.93,NW,320,9.0,21.0,81,0.00,,,0.00,meteohub,2013-05-12 07:31:00,
2013-05-12 03:36:00,38.7,33.3,29.93,WNW,289,8.0,16.0,81,0.00,,,0.00,meteohub,2013-05-12 07:36:00,
2013-05-12 03:41:00,38.7,33.3,29.93,WNW,295,8.0,16.0,81,0.00,,,0.00,meteohub,2013-05-12 07:41:00,
2013-05-12 03:47:00,38.5,33.4,29.93,WNW,297,9.0,15.0,82,0.00,,,0.00,meteohub,2013-05-12 07:47:00,
2013-05-12 03:52:00,38.5,33.4,29.93,WNW,298,6.0,15.0,82,0.00,,,0.00,meteohub,2013-05-12 07:52:00,
2013-05-12 03:57:00,38.5,33.4,29.93,WNW,293,6.0,13.0,82,0.00,,,0.00,meteohub,2013-05-12 07:57:00,
2013-05-12 04:02:00,38.3,33.3,29.93,NW,305,7.0,13.0,82,0.00,,,0.00,meteohub,2013-05-12 08:02:00,
2013-05-12 04:07:00,38.5,33.1,29.93,WNW,295,12.0,15.0,81,0.00,,,0.00,meteohub,2013-05-12 08:07:00,
2013-05-12 04:12:00,38.3,32.9,29.93,WNW,297,9.0,15.0,81,0.00,,,0.00,meteohub,2013-05-12 08:12:00,
2013-05-12 04:17:00,38.3,32.9,29.93,NW,308,12.0,20.0,81,0.00,,,0.00,meteohub,2013-05-12 08:17:00,
2013-05-12 04:22:00,38.1,32.7,29.93,WNW,293,7.0,20.0,81,0.00,,,0.00,meteohub,2013-05-12 08:22:00,
2013-05-12 04:27:00,37.9,32.7,29.93,West,281,9.0,19.0,81,0.00,,,0.00,meteohub,2013-05-12 08:27:00,
2013-05-12 04:32:00,37.9,32.7,29.94,WNW,293,6.0,19.0,81,0.00,,,0.00,meteohub,2013-05-12 08:32:00,
2013-05-12 04:37:00,37.9,32.7,29.94,WNW,287,8.0,15.0,81,0.00,,,0.00,meteohub,2013-05-12 08:37:00,
2013-05-12 04:42:00,37.9,32.7,29.94,WNW,297,8.0,15.0,81,0.00,,,0.00,meteohub,2013-05-12 08:42:00,
2013-05-12 04:47:00,37.8,32.5,29.94,WNW,293,12.0,15.0,81,0.00,,,0.00,meteohub,2013-05-12 08:47:00,
2013-05-12 04:52:00,37.9,32.4,29.94,WNW,289,9.0,15.0,80,0.00,,,0.00,meteohub,2013-05-12 08:52:00,
2013-05-12 04:57:00,38.1,32.5,29.94,WNW,284,9.0,15.0,80,0.00,,,0.00,meteohub,2013-05-12 08:57:00,
2013-05-12 05:02:00,38.1,32.5,29.94,WNW,298,11.0,17.0,80,0.00,,,0.00,meteohub,2013-05-12 09:02:00,
2013-05-12 05:07:00,38.3,32.4,29.94,WNW,295,10.0,17.0,79,0.00,,,0.00,meteohub,2013-05-12 09:07:00,
2013-05-12 05:12:00,38.5,32.9,29.94,NW,304,10.0,17.0,80,0.00,,,0.00,meteohub,2013-05-12 09:12:00,
2013-05-12 05:17:00,38.5,32.5,29.94,WNW,289,9.0,16.0,79,0.00,,,0.00,meteohub,2013-05-12 09:17:00,
2013-05-12 05:22:00,38.5,32.5,29.94,WNW,290,9.0,16.0,79,0.00,,,0.00,meteohub,2013-05-12 09:22:00,
2013-05-12 05:27:00,38.5,32.5,29.94,WNW,297,7.0,16.0,79,0.00,,,0.00,meteohub,2013-05-12 09:27:00,
2013-05-12 05:32:00,38.5,32.5,29.94,NW,304,9.0,17.0,79,0.00,,,0.00,meteohub,2013-05-12 09:32:00,
2013-05-12 05:37:00,38.3,32.4,29.94,West,280,12.0,17.0,79,0.00,,,0.00,meteohub,2013-05-12 09:37:00,
2013-05-12 05:43:00,38.1,32.2,29.94,West,278,12.0,16.0,79,0.00,,,0.00,meteohub,2013-05-12 09:43:00,
2013-05-12 05:48:00,38.1,32.2,29.94,NW,304,12.0,16.0,79,0.00,,,0.00,meteohub,2013-05-12 09:48:00,
2013-05-12 05:53:00,38.1,32.2,29.94,WNW,298,10.0,16.0,79,0.00,,,0.00,meteohub,2013-05-12 09:53:00,
2013-05-12 05:58:00,38.1,32.2,29.95,NW,308,9.0,18.0,79,0.00,,,0.00,meteohub,2013-05-12 09:58:00,
2013-05-12 06:03:00,38.1,31.8,29.94,WNW,285,12.0,18.0,78,0.00,,,0.00,meteohub,2013-05-12 10:03:00,
2013-05-12 06:08:00,38.1,32.2,29.95,West,273,12.0,18.0,79,0.00,,,0.00,meteohub,2013-05-12 10:08:00,
2013-05-12 06:13:00,38.1,31.8,29.95,WNW,301,10.0,18.0,78,0.00,,,0.00,meteohub,2013-05-12 10:13:00,
2013-05-12 06:18:00,38.1,31.8,29.95,NW,304,9.0,21.0,78,0.00,,,0.00,meteohub,2013-05-12 10:18:00,
2013-05-12 06:23:00,38.1,31.8,29.95,WNW,300,11.0,21.0,78,0.00,,,0.00,meteohub,2013-05-12 10:23:00,
2013-05-12 06:28:00,38.1,31.8,29.95,WNW,287,9.0,21.0,78,0.00,,,0.00,meteohub,2013-05-12 10:28:00,
2013-05-12 06:33:00,38.1,31.8,29.96,WNW,287,9.0,21.0,78,0.00,,,0.00,meteohub,2013-05-12 10:33:00,
2013-05-12 06:38:00,38.1,31.6,29.96,WNW,290,9.0,21.0,77,0.00,,,0.00,meteohub,2013-05-12 10:38:00,
2013-05-12 06:43:00,38.1,31.8,29.96,WNW,298,9.0,15.0,78,0.00,,,0.00,meteohub,2013-05-12 10:43:00,
2013-05-12 06:48:00,38.3,32.0,29.96,WNW,295,12.0,15.0,78,0.00,,,0.00,meteohub,2013-05-12 10:48:00,
2013-05-12 06:53:00,38.3,31.6,29.96,WNW,295,11.0,15.0,77,0.00,,,0.00,meteohub,2013-05-12 10:53:00,
2013-05-12 06:58:00,38.3,31.6,29.96,WNW,287,8.0,15.0,77,0.00,,,0.00,meteohub,2013-05-12 10:58:00,
2013-05-12 07:03:00,38.3,31.6,29.96,WNW,289,9.0,17.0,77,0.00,,,0.00,meteohub,2013-05-12 11:03:00,
2013-05-12 07:08:00,38.3,31.5,29.96,WNW,300,16.0,17.0,76,0.00,,,0.00,meteohub,2013-05-12 11:08:00,
2013-05-12 07:13:00,38.5,30.9,29.96,NW,309,15.0,17.0,74,0.00,,,0.00,meteohub,2013-05-12 11:13:00,
2013-05-12 07:18:00,38.5,30.9,29.96,WNW,295,6.0,17.0,74,0.00,,,0.00,meteohub,2013-05-12 11:18:00,
2013-05-12 07:23:00,38.5,30.6,29.96,WNW,301,13.0,17.0,73,0.00,,,0.00,meteohub,2013-05-12 11:23:00,
2013-05-12 07:28:00,38.5,30.9,29.97,WNW,297,9.0,17.0,74,0.00,,,0.00,meteohub,2013-05-12 11:28:00,
2013-05-12 07:33:00,38.5,30.9,29.97,WNW,298,8.0,19.0,74,0.00,,,0.00,meteohub,2013-05-12 11:33:00,
2013-05-12 07:39:00,38.5,30.9,29.97,WNW,297,12.0,19.0,74,0.00,,,0.00,meteohub,2013-05-12 11:39:00,
2013-05-12 07:44:00,38.7,31.1,29.97,West,276,9.0,19.0,74,0.00,,,0.00,meteohub,2013-05-12 11:44:00,
2013-05-12 07:49:00,38.7,31.1,29.97,WNW,293,7.0,19.0,74,0.00,,,0.00,meteohub,2013-05-12 11:49:00,
2013-05-12 07:54:00,38.7,30.7,29.98,NW,315,11.0,18.0,73,0.00,,,0.00,meteohub,2013-05-12 11:54:00,
2013-05-12 07:59:00,38.7,30.7,29.98,WNW,298,8.0,18.0,73,0.00,,,0.00,meteohub,2013-05-12 11:59:00,
2013-05-12 08:04:00,38.7,31.1,29.98,WNW,284,4.0,18.0,74,0.00,,,0.00,meteohub,2013-05-12 12:04:00,
2013-05-12 08:09:00,38.8,31.3,29.98,WNW,298,15.0,18.0,74,0.00,,,0.00,meteohub,2013-05-12 12:09:00,
2013-05-12 08:14:00,38.8,31.3,29.98,WNW,293,11.0,16.0,74,0.00,,,0.00,meteohub,2013-05-12 12:14:00,
2013-05-12 08:19:00,38.8,31.3,29.98,WNW,295,6.0,16.0,74,0.00,,,0.00,meteohub,2013-05-12 12:19:00,
2013-05-12 08:24:00,38.8,31.6,29.98,NW,304,11.0,16.0,75,0.00,,,0.00,meteohub,2013-05-12 12:24:00,
2013-05-12 08:29:00,38.8,31.3,29.98,WNW,286,9.0,19.0,74,0.00,,,0.00,meteohub,2013-05-12 12:29:00,
2013-05-12 08:34:00,38.8,31.3,29.99,West,279,8.0,19.0,74,0.00,,,0.00,meteohub,2013-05-12 12:34:00,
2013-05-12 08:39:00,38.8,31.3,29.99,WNW,293,7.0,19.0,74,0.00,,,0.00,meteohub,2013-05-12 12:39:00,
2013-05-12 08:44:00,38.8,31.6,29.99,WNW,298,14.0,22.0,75,0.00,,,0.00,meteohub,2013-05-12 12:44:00,
2013-05-12 08:49:00,39.0,32.2,29.99,WNW,300,6.0,22.0,76,0.00,,,0.00,meteohub,2013-05-12 12:49:00,
2013-05-12 08:54:00,39.0,32.2,29.99,WNW,300,9.0,22.0,76,0.00,,,0.00,meteohub,2013-05-12 12:54:00,
2013-05-12 09:00:00,39.4,32.2,29.99,NW,310,17.0,20.0,75,0.00,,,0.00,meteohub,2013-05-12 13:00:00,
2013-05-12 09:05:00,39.4,32.5,29.99,West,281,8.0,20.0,76,0.00,,,0.00,meteohub,2013-05-12 13:05:00,
2013-05-12 09:10:00,39.6,32.4,29.99,WNW,293,13.0,20.0,75,0.00,,,0.00,meteohub,2013-05-12 13:10:00,
2013-05-12 09:15:00,39.9,32.7,29.99,WNW,284,9.0,19.0,75,0.00,,,0.00,meteohub,2013-05-12 13:15:00,
2013-05-12 09:20:00,40.3,32.7,29.99,NW,325,9.0,19.0,74,0.00,,,0.00,meteohub,2013-05-12 13:20:00,
2013-05-12 09:25:00,40.3,32.4,29.99,WNW,297,15.0,19.0,73,0.00,,,0.00,meteohub,2013-05-12 13:25:00,
2013-05-12 09:30:00,39.9,32.0,30.00,WNW,300,12.0,22.0,73,0.00,,,0.00,meteohub,2013-05-12 13:30:00,
2013-05-12 09:35:00,39.7,32.2,30.00,WNW,295,13.0,22.0,74,0.00,,,0.00,meteohub,2013-05-12 13:35:00,
2013-05-12 09:40:00,39.7,32.2,30.00,WNW,295,10.0,22.0,74,0.00,,,0.00,meteohub,2013-05-12 13:40:00,
2013-05-12 09:45:00,39.7,32.2,30.00,NW,304,15.0,22.0,74,0.00,,,0.00,meteohub,2013-05-12 13:45:00,
2013-05-12 09:50:00,39.7,32.5,30.00,WNW,293,7.0,22.0,75,0.00,,,0.00,meteohub,2013-05-12 13:50:00,
2013-05-12 09:55:00,39.7,32.7,30.00,WNW,292,13.0,22.0,76,0.00,,,0.00,meteohub,2013-05-12 13:55:00,
2013-05-12 10:00:00,39.7,33.1,30.01,WNW,295,11.0,20.0,77,0.00,,,0.00,meteohub,2013-05-12 14:00:00,
2013-05-12 10:05:00,39.9,33.3,30.00,NW,304,9.0,20.0,77,0.00,,,0.00,meteohub,2013-05-12 14:05:00,
2013-05-12 10:10:00,39.9,32.9,30.01,WNW,298,15.0,20.0,76,0.00,,,0.00,meteohub,2013-05-12 14:10:00,
2013-05-12 10:15:00,39.9,32.7,30.01,WNW,290,10.0,18.0,75,0.00,,,0.00,meteohub,2013-05-12 14:15:00,
2013-05-12 10:21:00,39.9,32.9,30.01,WNW,295,10.0,18.0,76,0.00,,,0.00,meteohub,2013-05-12 14:21:00,
2013-05-12 10:26:00,39.9,32.7,30.01,NW,304,12.0,18.0,75,0.00,,,0.00,meteohub,2013-05-12 14:26:00,
2013-05-12 10:31:00,40.5,33.8,30.01,NW,307,13.0,21.0,77,0.00,,,0.00,meteohub,2013-05-12 14:31:00,
2013-05-12 10:36:00,40.3,33.6,30.01,WNW,295,11.0,21.0,77,0.00,,,0.00,meteohub,2013-05-12 14:36:00,
2013-05-12 10:41:00,39.9,33.3,30.01,West,281,14.0,21.0,77,0.00,,,0.00,meteohub,2013-05-12 14:41:00,
2013-05-12 10:46:00,40.1,32.9,30.01,WNW,295,14.0,21.0,75,0.00,,,0.00,meteohub,2013-05-12 14:46:00,
2013-05-12 10:51:00,39.9,32.4,30.01,West,270,12.0,21.0,74,0.00,,,0.00,meteohub,2013-05-12 14:51:00,
2013-05-12 10:56:00,40.1,32.9,30.02,NW,307,10.0,21.0,75,0.00,,,0.00,meteohub,2013-05-12 14:56:00,
2013-05-12 11:01:00,40.3,32.7,30.02,NW,312,9.0,22.0,74,0.00,,,0.00,meteohub,2013-05-12 15:01:00,
2013-05-12 11:06:00,40.6,33.3,30.02,West,262,12.0,22.0,75,0.00,,,0.00,meteohub,2013-05-12 15:06:00,
2013-05-12 11:11:00,40.6,32.7,30.02,WNW,295,14.0,22.0,73,0.00,,,0.00,meteohub,2013-05-12 15:11:00,
2013-05-12 11:16:00,40.5,32.9,30.03,WNW,295,8.0,19.0,74,0.00,,,0.00,meteohub,2013-05-12 15:16:00,
2013-05-12 11:21:00,40.6,33.3,30.03,WNW,290,13.0,19.0,75,0.00,,,0.00,meteohub,2013-05-12 15:21:00,
2013-05-12 11:26:00,40.6,32.0,30.03,NW,304,10.0,19.0,71,0.00,,,0.00,meteohub,2013-05-12 15:26:00,
2013-05-12 11:31:00,40.5,32.5,30.03,NW,316,12.0,22.0,73,0.00,,,0.00,meteohub,2013-05-12 15:31:00,
2013-05-12 11:36:00,40.6,32.0,30.03,West,276,12.0,22.0,71,0.00,,,0.00,meteohub,2013-05-12 15:36:00,
2013-05-12 11:41:00,40.8,32.5,30.04,WNW,298,9.0,22.0,72,0.00,,,0.00,meteohub,2013-05-12 15:41:00,
2013-05-12 11:46:00,40.6,32.4,30.04,WNW,287,8.0,18.0,72,0.00,,,0.00,meteohub,2013-05-12 15:46:00,
2013-05-12 11:51:00,40.6,32.0,30.04,WNW,295,12.0,18.0,71,0.00,,,0.00,meteohub,2013-05-12 15:51:00,
2013-05-12 11:56:00,40.8,33.3,30.04,WNW,298,6.0,18.0,74,0.00,,,0.00,meteohub,2013-05-12 15:56:00,
2013-05-12 12:02:00,41.2,31.8,30.04,NW,317,12.0,20.0,69,0.00,,,0.00,meteohub,2013-05-12 16:02:00,
2013-05-12 12:07:00,41.2,32.5,30.04,West,269,8.0,20.0,71,0.00,,,0.00,meteohub,2013-05-12 16:07:00,
2013-05-12 12:12:00,41.4,32.7,30.04,WNW,301,13.0,20.0,71,0.00,,,0.00,meteohub,2013-05-12 16:12:00,
2013-05-12 12:16:00,41.4,32.4,30.04,NW,305,10.0,18.0,70,0.00,,,0.00,meteohub,2013-05-12 16:16:00,
2013-05-12 12:22:00,41.2,32.2,30.05,WNW,285,15.0,18.0,70,0.00,,,0.00,meteohub,2013-05-12 16:22:00,
2013-05-12 12:27:00,41.0,32.4,30.05,WNW,298,13.0,18.0,71,0.00,,,0.00,meteohub,2013-05-12 16:27:00,
2013-05-12 12:32:00,41.2,32.5,30.05,WNW,300,10.0,18.0,71,0.00,,,0.00,meteohub,2013-05-12 16:32:00,
2013-05-12 12:37:00,41.4,32.4,30.05,WNW,292,15.0,20.0,70,0.00,,,0.00,meteohub,2013-05-12 16:37:00,
2013-05-12 12:42:00,41.4,32.7,30.05,WNW,292,9.0,20.0,71,0.00,,,0.00,meteohub,2013-05-12 16:42:00,
2013-05-12 12:47:00,41.4,32.4,30.05,WNW,303,11.0,20.0,70,0.00,,,0.00,meteohub,2013-05-12 16:47:00,
2013-05-12 12:52:00,41.2,32.2,30.05,NW,307,12.0,20.0,70,0.00,,,0.00,meteohub,2013-05-12 16:52:00,
2013-05-12 12:57:00,41.2,33.3,30.05,NW,304,10.0,21.0,73,0.00,,,0.00,meteohub,2013-05-12 16:57:00,
2013-05-12 13:02:00,40.8,32.2,30.06,WNW,295,9.0,21.0,71,0.00,,,0.00,meteohub,2013-05-12 17:02:00,
2013-05-12 13:07:00,40.8,32.5,30.06,WNW,295,9.0,21.0,72,0.00,,,0.00,meteohub,2013-05-12 17:07:00,
2013-05-12 13:12:00,41.2,32.2,30.05,WNW,300,11.0,21.0,70,0.00,,,0.00,meteohub,2013-05-12 17:12:00,
2013-05-12 13:17:00,41.9,33.3,30.06,West,269,10.0,19.0,71,0.00,,,0.00,meteohub,2013-05-12 17:17:00,
2013-05-12 13:22:00,41.7,32.0,30.06,WNW,297,16.0,19.0,68,0.00,,,0.00,meteohub,2013-05-12 17:22:00,
2013-05-12 13:27:00,41.2,32.5,30.06,WNW,290,13.0,19.0,71,0.00,,,0.00,meteohub,2013-05-12 17:27:00,
2013-05-12 13:32:00,41.2,32.5,30.06,West,280,15.0,19.0,71,0.00,,,0.00,meteohub,2013-05-12 17:32:00,
2013-05-12 13:37:00,41.2,31.8,30.06,NW,307,13.0,24.0,69,0.00,,,0.00,meteohub,2013-05-12 17:37:00,
2013-05-12 13:42:00,41.4,32.7,30.06,NW,304,12.0,24.0,71,0.00,,,0.00,meteohub,2013-05-12 17:42:00,
2013-05-12 13:47:00,41.5,31.1,30.07,WNW,287,12.0,22.0,66,0.00,,,0.00,meteohub,2013-05-12 17:47:00,
2013-05-12 13:52:00,41.4,30.0,30.06,WNW,298,22.0,22.0,64,0.00,,,0.00,meteohub,2013-05-12 17:52:00,
2013-05-12 13:57:00,41.4,29.7,30.07,NW,304,17.0,24.0,63,0.00,,,0.00,meteohub,2013-05-12 17:57:00,
2013-05-12 14:02:00,42.1,31.1,30.06,West,267,10.0,24.0,65,0.00,,,0.00,meteohub,2013-05-12 18:02:00,
2013-05-12 14:07:00,42.3,30.6,30.07,West,281,18.0,25.0,63,0.00,,,0.00,meteohub,2013-05-12 18:07:00,
2013-05-12 14:12:00,42.1,30.0,30.07,WNW,295,19.0,25.0,62,0.00,,,0.00,meteohub,2013-05-12 18:12:00,
2013-05-12 14:17:00,42.1,30.0,30.07,NW,304,18.0,25.0,62,0.00,,,0.00,meteohub,2013-05-12 18:17:00,
2013-05-12 14:23:00,41.9,29.8,30.07,WNW,289,12.0,25.0,62,0.00,,,0.00,meteohub,2013-05-12 18:23:00,
2013-05-12 14:28:00,41.9,30.2,30.07,WNW,293,15.0,24.0,63,0.00,,,0.00,meteohub,2013-05-12 18:28:00,
2013-05-12 14:33:00,41.7,30.0,30.08,West,271,15.0,24.0,63,0.00,,,0.00,meteohub,2013-05-12 18:33:00,
2013-05-12 14:38:00,41.7,30.0,30.08,WNW,295,12.0,26.0,63,0.00,,,0.00,meteohub,2013-05-12 18:38:00,
2013-05-12 14:43:00,42.1,30.4,30.07,NNW,340,14.0,26.0,63,0.00,,,0.00,meteohub,2013-05-12 18:43:00,
2013-05-12 14:48:00,41.7,29.3,30.07,NW,317,14.0,24.0,61,0.00,,,0.00,meteohub,2013-05-12 18:48:00,
2013-05-12 14:53:00,42.1,30.4,30.07,WNW,301,14.0,24.0,63,0.00,,,0.00,meteohub,2013-05-12 18:53:00,
2013-05-12 14:58:00,42.3,30.2,30.07,WNW,301,12.0,24.0,62,0.00,,,0.00,meteohub,2013-05-12 18:58:00,
2013-05-12 15:03:00,42.3,30.6,30.07,West,277,9.0,24.0,63,0.00,,,0.00,meteohub,2013-05-12 19:03:00,
2013-05-12 15:08:00,42.8,30.2,30.07,WNW,300,14.0,25.0,61,0.00,,,0.00,meteohub,2013-05-12 19:08:00,
2013-05-12 15:13:00,42.3,28.9,30.07,WNW,298,13.0,25.0,59,0.00,,,0.00,meteohub,2013-05-12 19:13:00,
2013-05-12 15:18:00,42.3,29.3,30.07,WNW,287,5.0,28.0,60,0.00,,,0.00,meteohub,2013-05-12 19:18:00,
2013-05-12 15:23:00,42.3,29.8,30.07,NW,304,8.0,28.0,61,0.00,,,0.00,meteohub,2013-05-12 19:23:00,
2013-05-12 15:28:00,42.4,30.7,30.07,WNW,289,11.0,28.0,63,0.00,,,0.00,meteohub,2013-05-12 19:28:00,
2013-05-12 15:33:00,42.8,30.7,30.07,NW,307,21.0,28.0,62,0.00,,,0.00,meteohub,2013-05-12 19:33:00,
2013-05-12 15:38:00,43.0,30.9,30.07,WNW,300,16.0,25.0,62,0.00,,,0.00,meteohub,2013-05-12 19:38:00,
2013-05-12 15:43:00,43.0,30.4,30.07,NW,307,14.0,25.0,61,0.00,,,0.00,meteohub,2013-05-12 19:43:00,
2013-05-12 15:49:00,43.0,30.9,30.07,WNW,290,11.0,24.0,62,0.00,,,0.00,meteohub,2013-05-12 19:49:00,
2013-05-12 15:54:00,43.0,30.0,30.08,WNW,295,17.0,24.0,60,0.00,,,0.00,meteohub,2013-05-12 19:54:00,
2013-05-12 15:59:00,42.6,30.2,30.08,WNW,298,13.0,21.0,61,0.00,,,0.00,meteohub,2013-05-12 19:59:00,
2013-05-12 16:04:00,42.3,29.8,30.08,West,262,14.0,21.0,61,0.00,,,0.00,meteohub,2013-05-12 20:04:00,
2013-05-12 16:09:00,42.3,30.6,30.08,NW,317,11.0,23.0,63,0.00,,,0.00,meteohub,2013-05-12 20:09:00,
2013-05-12 16:14:00,42.3,30.2,30.08,WNW,297,6.0,23.0,62,0.00,,,0.00,meteohub,2013-05-12 20:14:00,
2013-05-12 16:19:00,42.4,29.5,30.08,NNW,329,7.0,22.0,60,0.00,,,0.00,meteohub,2013-05-12 20:19:00,
2013-05-12 16:24:00,42.4,30.0,30.08,NW,307,15.0,22.0,61,0.00,,,0.00,meteohub,2013-05-12 20:24:00,
2013-05-12 16:29:00,42.3,29.3,30.08,West,273,10.0,23.0,60,0.00,,,0.00,meteohub,2013-05-12 20:29:00,
2013-05-12 16:34:00,42.3,29.8,30.08,WNW,289,15.0,23.0,61,0.00,,,0.00,meteohub,2013-05-12 20:34:00,
2013-05-12 16:39:00,42.4,30.4,30.08,WNW,295,8.0,23.0,62,0.00,,,0.00,meteohub,2013-05-12 20:39:00,
2013-05-12 16:44:00,42.8,30.2,30.08,WNW,300,7.0,23.0,61,0.00,,,0.00,meteohub,2013-05-12 20:44:00,
2013-05-12 16:49:00,42.8,29.1,30.08,NW,314,22.0,22.0,58,0.00,,,0.00,meteohub,2013-05-12 20:49:00,
2013-05-12 16:54:00,42.6,27.5,30.08,WNW,284,10.0,22.0,55,0.00,,,0.00,meteohub,2013-05-12 20:54:00,
2013-05-12 16:59:00,42.4,27.9,30.08,WNW,297,12.0,25.0,56,0.00,,,0.00,meteohub,2013-05-12 20:59:00,
2013-05-12 17:04:00,42.6,28.4,30.08,NW,315,13.0,25.0,57,0.00,,,0.00,meteohub,2013-05-12 21:04:00,
2013-05-12 17:09:00,42.6,28.4,30.08,WNW,295,11.0,25.0,57,0.00,,,0.00,meteohub,2013-05-12 21:09:00,
2013-05-12 17:14:00,42.6,29.3,30.08,West,267,8.0,25.0,59,0.00,,,0.00,meteohub,2013-05-12 21:14:00,
2013-05-12 17:19:00,43.2,28.9,30.08,WNW,290,14.0,21.0,57,0.00,,,0.00,meteohub,2013-05-12 21:19:00,
2013-05-12 17:24:00,43.2,28.0,30.08,NW,304,16.0,21.0,55,0.00,,,0.00,meteohub,2013-05-12 21:24:00,
2013-05-12 17:29:00,43.0,27.9,30.08,West,269,8.0,22.0,55,0.00,,,0.00,meteohub,2013-05-12 21:29:00,
2013-05-12 17:34:00,43.2,28.9,30.08,WNW,298,15.0,22.0,57,0.00,,,0.00,meteohub,2013-05-12 21:34:00,
2013-05-12 17:39:00,43.5,29.7,30.09,NW,304,9.0,23.0,58,0.00,,,0.00,meteohub,2013-05-12 21:39:00,
2013-05-12 17:44:00,43.9,28.4,30.08,WNW,289,7.0,23.0,54,0.00,,,0.00,meteohub,2013-05-12 21:44:00,
2013-05-12 17:50:00,43.9,28.4,30.08,WNW,300,13.0,21.0,54,0.00,,,0.00,meteohub,2013-05-12 21:50:00,
2013-05-12 17:55:00,43.9,28.4,30.08,WNW,301,15.0,21.0,54,0.00,,,0.00,meteohub,2013-05-12 21:55:00,
2013-05-12 18:00:00,43.3,27.9,30.08,NW,304,12.0,21.0,54,0.00,,,0.00,meteohub,2013-05-12 22:00:00,
2013-05-12 18:05:00,43.3,28.2,30.09,NW,309,11.0,21.0,55,0.00,,,0.00,meteohub,2013-05-12 22:05:00,
2013-05-12 18:10:00,43.5,28.4,30.09,West,281,10.0,22.0,55,0.00,,,0.00,meteohub,2013-05-12 22:10:00,
2013-05-12 18:15:00,43.7,28.6,30.09,WNW,292,10.0,22.0,55,0.00,,,0.00,meteohub,2013-05-12 22:15:00,
2013-05-12 18:20:00,43.9,29.1,30.09,WNW,300,8.0,22.0,56,0.00,,,0.00,meteohub,2013-05-12 22:20:00,
2013-05-12 18:25:00,44.1,28.4,30.09,WNW,294,13.0,18.0,54,0.00,,,0.00,meteohub,2013-05-12 22:25:00,
2013-05-12 18:30:00,44.2,28.6,30.09,WNW,290,13.0,18.0,54,0.00,,,0.00,meteohub,2013-05-12 22:30:00,
2013-05-12 18:35:00,44.2,28.2,30.09,NW,307,11.0,18.0,53,0.00,,,0.00,meteohub,2013-05-12 22:35:00,
2013-05-12 18:40:00,44.8,28.2,30.09,WNW,302,8.0,20.0,52,0.00,,,0.00,meteohub,2013-05-12 22:40:00,
2013-05-12 18:45:00,45.1,28.6,30.09,NW,309,7.0,20.0,52,0.00,,,0.00,meteohub,2013-05-12 22:45:00,
2013-05-12 18:50:00,45.1,28.0,30.09,WNW,284,9.0,20.0,51,0.00,,,0.00,meteohub,2013-05-12 22:50:00,
2013-05-12 18:56:00,45.1,28.6,30.09,NW,307,12.0,20.0,52,0.00,,,0.00,meteohub,2013-05-12 22:56:00,
2013-05-12 19:01:00,45.0,28.4,30.09,NNW,328,11.0,20.0,52,0.00,,,0.00,meteohub,2013-05-12 23:01:00,
2013-05-12 19:06:00,45.0,28.4,30.09,WNW,290,14.0,20.0,52,0.00,,,0.00,meteohub,2013-05-12 23:06:00,
2013-05-12 19:11:00,44.8,27.7,30.09,NW,321,12.0,17.0,51,0.00,,,0.00,meteohub,2013-05-12 23:11:00,
2013-05-12 19:16:00,44.8,28.2,30.09,NW,305,9.0,17.0,52,0.00,,,0.00,meteohub,2013-05-12 23:16:00,
2013-05-12 19:21:00,44.8,28.2,30.09,WNW,301,10.0,20.0,52,0.00,,,0.00,meteohub,2013-05-12 23:21:00,
2013-05-12 19:26:00,44.8,28.2,30.09,NW,307,10.0,20.0,52,0.00,,,0.00,meteohub,2013-05-12 23:26:00,
2013-05-12 19:31:00,44.6,27.5,30.09,NW,319,6.0,17.0,51,0.00,,,0.00,meteohub,2013-05-12 23:31:00,
2013-05-12 19:36:00,44.8,27.7,30.08,WNW,302,10.0,17.0,51,0.00,,,0.00,meteohub,2013-05-12 23:36:00,
2013-05-12 19:41:00,44.8,28.2,30.08,NW,304,8.0,17.0,52,0.00,,,0.00,meteohub,2013-05-12 23:41:00,
2013-05-12 19:46:00,44.8,27.3,30.08,NW,318,5.0,17.0,50,0.00,,,0.00,meteohub,2013-05-12 23:46:00,
2013-05-12 19:51:00,44.8,27.7,30.09,NW,309,10.0,12.0,51,0.00,,,0.00,meteohub,2013-05-12 23:51:00,
2013-05-12 19:56:00,44.8,26.8,30.08,WNW,295,8.0,12.0,49,0.00,,,0.00,meteohub,2013-05-12 23:56:00,
2013-05-12 20:01:00,44.4,27.0,30.08,WNW,289,9.0,16.0,50,0.00,,,0.00,meteohub,2013-05-13 00:01:00,
2013-05-12 20:06:00,44.2,27.3,30.08,NNW,330,7.0,16.0,51,0.00,,,0.00,meteohub,2013-05-13 00:06:00,
2013-05-12 20:11:00,44.1,27.1,30.08,NNW,335,5.0,18.0,51,0.00,,,0.00,meteohub,2013-05-13 00:11:00,
2013-05-12 20:16:00,43.9,27.3,30.08,WNW,288,8.0,18.0,52,0.00,,,0.00,meteohub,2013-05-13 00:16:00,
2013-05-12 20:21:00,43.7,27.1,30.08,NW,311,6.0,16.0,52,0.00,,,0.00,meteohub,2013-05-13 00:21:00,
2013-05-12 20:26:00,43.5,27.5,30.08,WNW,302,7.0,16.0,53,0.00,,,0.00,meteohub,2013-05-13 00:26:00,
2013-05-12 20:31:00,43.3,27.0,30.08,NW,319,8.0,9.0,52,0.00,,,0.00,meteohub,2013-05-13 00:31:00,
2013-05-12 20:36:00,43.3,27.3,30.08,NW,305,3.0,9.0,53,0.00,,,0.00,meteohub,2013-05-13 00:36:00,
2013-05-12 20:41:00,42.8,27.3,30.08,WNW,289,5.0,13.0,54,0.00,,,0.00,meteohub,2013-05-13 00:41:00,
2013-05-12 20:47:00,42.4,27.5,30.08,WNW,293,4.0,13.0,55,0.00,,,0.00,meteohub,2013-05-13 00:47:00,
2013-05-12 20:52:00,42.3,28.6,30.08,WNW,293,3.0,8.0,58,0.00,,,0.00,meteohub,2013-05-13 00:52:00,
2013-05-12 20:57:00,41.9,28.2,30.09,WNW,297,3.0,8.0,58,0.00,,,0.00,meteohub,2013-05-13 00:57:00,
2013-05-12 21:02:00,41.7,28.4,30.09,West,278,2.0,5.0,59,0.00,,,0.00,meteohub,2013-05-13 01:02:00,
2013-05-12 21:07:00,41.5,28.8,30.09,West,276,2.0,5.0,60,0.00,,,0.00,meteohub,2013-05-13 01:07:00,
2013-05-12 21:12:00,41.2,28.4,30.09,WNW,284,2.0,5.0,60,0.00,,,0.00,meteohub,2013-05-13 01:12:00,
2013-05-12 21:17:00,41.0,28.9,30.09,West,276,1.0,5.0,62,0.00,,,0.00,meteohub,2013-05-13 01:17:00,
2013-05-12 21:22:00,40.6,29.1,30.09,West,271,0.0,3.0,63,0.00,,,0.00,meteohub,2013-05-13 01:22:00,
2013-05-12 21:27:00,40.5,29.3,30.09,West,271,1.0,3.0,64,0.00,,,0.00,meteohub,2013-05-13 01:27:00,
2013-05-12 21:32:00,40.3,29.5,30.09,West,270,1.0,3.0,65,0.00,,,0.00,meteohub,2013-05-13 01:32:00,
2013-05-12 21:37:00,39.7,29.7,30.09,West,270,0.0,3.0,67,0.00,,,0.00,meteohub,2013-05-13 01:37:00,
2013-05-12 21:42:00,39.4,29.7,30.09,West,270,0.0,1.0,68,0.00,,,0.00,meteohub,2013-05-13 01:42:00,
2013-05-12 21:47:00,38.7,30.4,30.09,West,270,1.0,1.0,72,0.00,,,0.00,meteohub,2013-05-13 01:47:00,
2013-05-12 21:52:00,38.5,30.2,30.10,West,269,1.0,1.0,72,0.00,,,0.00,meteohub,2013-05-13 01:52:00,
2013-05-12 21:57:00,38.1,30.2,30.10,SW,236,1.0,1.0,73,0.00,,,0.00,meteohub,2013-05-13 01:57:00,
2013-05-12 22:02:00,37.8,29.8,30.10,SW,236,0.0,1.0,73,0.00,,,0.00,meteohub,2013-05-13 02:02:00,
2013-05-12 22:07:00,37.6,30.0,30.11,West,262,0.0,1.0,74,0.00,,,0.00,meteohub,2013-05-13 02:07:00,
2013-05-12 22:12:00,37.2,30.9,30.11,West,262,0.0,1.0,78,0.00,,,0.00,meteohub,2013-05-13 02:12:00,
2013-05-12 22:17:00,36.3,30.4,30.11,West,262,0.0,1.0,79,0.00,,,0.00,meteohub,2013-05-13 02:17:00,
2013-05-12 22:22:00,36.0,30.0,30.11,West,262,0.0,1.0,79,0.00,,,0.00,meteohub,2013-05-13 02:22:00,
2013-05-12 22:27:00,35.8,29.8,30.11,West,262,0.0,1.0,79,0.00,,,0.00,meteohub,2013-05-13 02:27:00,
2013-05-12 22:33:00,35.8,30.2,30.12,West,262,0.0,1.0,80,0.00,,,0.00,meteohub,2013-05-13 02:33:00,
2013-05-12 22:38:00,35.4,29.8,30.12,West,262,0.0,1.0,80,0.00,,,0.00,meteohub,2013-05-13 02:38:00,
2013-05-12 22:43:00,35.2,30.0,30.12,West,261,1.0,1.0,81,0.00,,,0.00,meteohub,2013-05-13 02:43:00,
2013-05-12 22:48:00,34.9,30.0,30.12,West,262,1.0,1.0,82,0.00,,,0.00,meteohub,2013-05-13 02:48:00,
2013-05-12 22:53:00,34.7,30.4,30.12,West,262,0.0,2.0,84,0.00,,,0.00,meteohub,2013-05-13 02:53:00,
2013-05-12 22:58:00,34.5,30.2,30.12,West,262,0.0,2.0,84,0.00,,,0.00,meteohub,2013-05-13 02:58:00,
2013-05-12 23:03:00,34.5,30.6,30.12,West,263,0.0,2.0,85,0.00,,,0.00,meteohub,2013-05-13 03:03:00,
2013-05-12 23:08:00,34.7,30.4,30.12,West,262,0.0,2.0,84,0.00,,,0.00,meteohub,2013-05-13 03:08:00,
2013-05-12 23:13:00,35.1,30.4,30.12,West,262,0.0,1.0,83,0.00,,,0.00,meteohub,2013-05-13 03:13:00,
2013-05-12 23:18:00,35.2,30.9,30.12,West,262,0.0,1.0,84,0.00,,,0.00,meteohub,2013-05-13 03:18:00,
2013-05-12 23:23:00,35.1,30.9,30.13,West,262,0.0,1.0,85,0.00,,,0.00,meteohub,2013-05-13 03:23:00,
2013-05-12 23:28:00,34.9,30.9,30.13,West,263,0.0,1.0,85,0.00,,,0.00,meteohub,2013-05-13 03:28:00,
2013-05-12 23:33:00,34.9,30.9,30.12,NNW,335,0.0,1.0,85,0.00,,,0.00,meteohub,2013-05-13 03:33:00,
2013-05-12 23:38:00,35.1,30.7,30.12,NNW,335,0.0,1.0,84,0.00,,,0.00,meteohub,2013-05-13 03:38:00,
2013-05-12 23:43:00,35.4,31.3,30.12,NE,46,0.0,1.0,85,0.00,,,0.00,meteohub,2013-05-13 03:43:00,
2013-05-12 23:48:00,35.4,31.1,30.13,NE,46,0.0,1.0,84,0.00,,,0.00,meteohub,2013-05-13 03:48:00,
2013-05-12 23:53:00,35.6,31.3,30.13,NNW,343,0.0,1.0,84,0.00,,,0.00,meteohub,2013-05-13 03:53:00,
2013-05-12 23:58:00,35.8,31.5,30.13,NW,321,0.0,1.0,84,0.00,,,0.00,meteohub,2013-05-13 03:58:00,